| time (UTC) | temp F | wind direction | speed MPH | gust MPH | rain 1hr in | rain 24hr in | rain mn in | humidity % | barometer mb |
| 20260507231504 | 36 | 135 | 1.0 | 2.0 | 0.00 | 0.00 | 0.00 | 83 | 1020.0 |
| 20260507230005 | 36 | 135 | 0.0 | 1.0 | 0.00 | 0.00 | 0.00 | 81 | 1020.3 |
| 20260507224505 | 37 | 135 | 1.0 | 2.0 | 0.00 | 0.00 | 0.00 | 80 | 1019.4 |
| 20260507223006 | 37 | 135 | 1.0 | 2.0 | 0.00 | 0.00 | 0.00 | 78 | 1019.4 |
| 20260507221504 | 37 | 135 | 1.0 | 2.0 | 0.00 | 0.00 | 0.00 | 77 | 1019.4 |
| 20260507214505 | 38 | 135 | 1.0 | 1.0 | 0.00 | 0.00 | 0.00 | 73 | 1018.6 |
| 20260507213006 | 39 | 135 | 0.0 | 1.0 | 0.00 | 0.00 | 0.00 | 71 | 1018.6 |
| 20260507210006 | 40 | 135 | 1.0 | 1.0 | 0.00 | 0.00 | 0.00 | 66 | 1018.6 |
| 20260507201504 | 42 | 135 | 1.0 | 3.0 | 0.00 | 0.00 | 0.00 | 59 | 1017.9 |
| 20260507200004 | 43 | 134 | 1.0 | 3.0 | 0.00 | 0.00 | 0.00 | 57 | 1017.9 |
| 20260507194504 | 44 | 134 | 0.0 | 3.0 | 0.00 | 0.00 | 0.00 | 54 | 1017.9 |
| 20260507193005 | 45 | 134 | 0.0 | 3.0 | 0.00 | 0.00 | 0.00 | 51 | 1017.9 |
| 20260507191505 | 46 | 134 | 1.0 | 5.0 | 0.00 | 0.00 | 0.00 | 51 | 1017.4 |
| 20260507181504 | 51 | 126 | 3.0 | 6.0 | 0.00 | 0.00 | 0.00 | 31 | 1017.2 |
| 20260507180005 | 52 | 147 | 3.0 | 6.0 | 0.00 | 0.00 | 0.00 | 22 | 1017.1 |
| 20260507174504 | 52 | 145 | 1.0 | 6.0 | 0.00 | 0.00 | 0.00 | 22 | 1016.6 |
| 20260507173005 | 53 | 196 | 1.0 | 5.0 | 0.00 | 0.00 | 0.00 | 25 | 1016.6 |
| 20260507171504 | 54 | 143 | 3.0 | 7.0 | 0.00 | 0.00 | 0.00 | 22 | 1016.6 |
| 20260507170005 | 55 | 136 | 3.0 | 6.0 | 0.00 | 0.00 | 0.00 | 20 | 1016.4 |
| 20260507164504 | 55 | 125 | 3.0 | 8.0 | 0.00 | 0.00 | 0.00 | 25 | 1016.2 |
| 20260507163005 | 55 | 141 | 3.0 | 7.0 | 0.00 | 0.00 | 0.00 | 21 | 1016.2 |
| 20260507153004 | 56 | 145 | 2.0 | 9.0 | 0.00 | 0.00 | 0.00 | 20 | 1015.8 |
| 20260507151504 | 56 | 122 | 4.0 | 12.0 | 0.00 | 0.00 | 0.00 | 18 | 1015.8 |
| 20260507144506 | 57 | 102 | 5.0 | 12.0 | 0.00 | 0.00 | 0.00 | 27 | 1015.4 |
| 20260507141504 | 57 | 105 | 6.0 | 17.0 | 0.00 | 0.00 | 0.00 | 27 | 1015.4 |
| 20260507140005 | 57 | 62 | 6.0 | 17.0 | 0.00 | 0.00 | 0.00 | 27 | 1015.3 |
| 20260507130005 | 57 | 68 | 3.0 | 15.0 | 0.00 | 0.00 | 0.00 | 35 | 1014.9 |
| 20260507124504 | 57 | 84 | 3.0 | 12.0 | 0.00 | 0.00 | 0.00 | 37 | 1014.9 |
| 20260507123005 | 57 | 53 | 5.0 | 12.0 | 0.00 | 0.00 | 0.00 | 36 | 1014.9 |
| 20260507121504 | 57 | 74 | 6.0 | 12.0 | 0.00 | 0.00 | 0.00 | 36 | 1014.8 |
| 20260507110005 | 54 | 331 | 8.0 | 12.0 | 0.00 | 0.00 | 0.00 | 34 | 1014.8 |
| 20260507100005 | 53 | 327 | 7.0 | 10.0 | 0.00 | 0.00 | 0.00 | 32 | 1014.5 |
| 20260507093004 | 53 | 338 | 6.0 | 9.0 | 0.00 | 0.00 | 0.00 | 30 | 1014.5 |
| 20260507083005 | 52 | 339 | 5.0 | 8.0 | 0.00 | 0.00 | 0.00 | 48 | 1014.2 |
| 20260507081504 | 51 | 9 | 5.0 | 8.0 | 0.00 | 0.00 | 0.00 | 51 | 1014.1 |
| 20260507064504 | 48 | 7 | 7.0 | 12.0 | 0.00 | 0.00 | 0.00 | 68 | 1013.7 |
| 20260507061504 | 47 | 0 | 7.0 | 10.0 | 0.00 | 0.00 | 0.00 | 72 | 1013.7 |
| 20260507060003 | 46 | 7 | 7.0 | 10.0 | 0.00 | 0.00 | 0.00 | 76 | 1013.7 |
| 20260507053005 | 45 | 346 | 6.0 | 9.0 | 0.00 | 0.00 | 0.00 | 81 | 1013.5 |
| 20260507051504 | 44 | 349 | 6.0 | 8.0 | 0.00 | 0.00 | 0.00 | 82 | 1013.5 |
| 20260507050005 | 44 | 349 | 7.0 | 9.0 | 0.00 | 0.00 | 0.00 | 83 | 1013.5 |
| 20260507040004 | 36 | 50 | 2.0 | 3.0 | 0.00 | 0.00 | 0.00 | 86 | 1013.1 |
| 20260507034504 | 35 | 48 | 1.0 | 3.0 | 0.00 | 0.00 | 0.00 | 84 | 1013.1 |
| 20260507030004 | 36 | 46 | 0.0 | 1.0 | 0.00 | 0.00 | 0.00 | 80 | 1012.8 |
| 20260507020003 | 34 | 51 | 2.0 | 3.0 | 0.00 | 0.00 | 0.00 | 85 | 1012.6 |
| 20260507010003 | 35 | 51 | 0.0 | 0.0 | 0.00 | 0.00 | 0.00 | 83 | 1012.5 |
| 20260507001503 | 35 | 50 | 2.0 | 3.0 | 0.00 | 0.00 | 0.00 | 84 | 1012.5 |
| 20260507000004 | 36 | 50 | 0.0 | 2.0 | 0.00 | 0.00 | 0.00 | 82 | 1012.5 |